�N����,����,�~����,�C��,���x,�C��,����,���ϕ���,�ő�u�ԕ���,�ő厞����,���˗�,�I�_���x,�n�����x,�ő啗���N��,DTYPE
"23/12/16","00:10",0.0,15.6,97.2,1004.5,297.1,1.1,1.9,259.4,0.00,15.2,12.9,"00:07:04",1
"23/12/16","00:20",0.0,15.7,97.2,1004.3,306.9,1.1,2.1,324.5,0.00,15.3,12.8,"00:13:04",1
"23/12/16","00:30",0.0,16.0,97.2,1004.5,325.9,1.1,2.5,316.5,0.00,15.6,12.7,"00:25:20",1
"23/12/16","00:40",0.0,16.3,97.2,1004.3,319.7,1.1,2.4,265.3,0.00,15.9,12.8,"00:35:20",1
"23/12/16","00:50",0.0,16.3,97.2,1004.3,309.9,1.3,2.4,311.8,0.00,15.9,12.9,"00:43:12",1
"23/12/16","01:00",0.0,16.6,97.2,1004.3,270.3,1.1,2.7,249.5,0.00,16.2,12.7,"00:56:00",1
"23/12/16","01:10",0.0,16.7,97.2,1004.3,305.4,1.1,2.1,311.6,0.00,16.3,12.6,"01:08:16",1
"23/12/16","01:20",0.0,16.8,97.2,1004.3,272.7,1.3,2.4,237.6,0.00,16.4,13.0,"01:19:20",1
"23/12/16","01:30",0.0,16.8,97.1,1004.8,298.6,1.0,1.8,322.6,0.00,16.4,12.9,"01:24:16",1
"23/12/16","01:40",0.2,16.8,97.2,1005.0,282.0,1.2,1.7,263.6,0.00,16.4,12.9,"01:38:24",1
"23/12/16","01:50",0.0,17.6,97.4,1004.8,297.1,1.3,2.9,267.5,0.00,17.2,12.9,"01:48:08",1
"23/12/16","02:00",0.2,18.3,97.0,1005.0,306.3,2.2,4.8,333.4,0.00,17.9,12.9,"01:53:52",1
"23/12/16","02:10",0.2,18.4,96.8,1004.8,301.7,2.3,4.8,340.7,0.00,17.9,12.8,"02:08:16",1
"23/12/16","02:20",0.2,18.3,96.7,1005.0,286.1,2.2,5.7,270.4,0.00,17.8,12.8,"02:16:08",1
"23/12/16","02:30",0.2,18.1,96.5,1005.2,306.1,3.0,5.0,334.8,0.00,17.6,12.7,"02:22:40",1
"23/12/16","02:40",0.0,18.0,96.5,1005.7,283.1,2.8,5.6,254.0,0.00,17.5,13.1,"02:35:44",1
"23/12/16","02:50",0.4,17.9,96.5,1005.2,287.4,2.8,5.7,258.9,0.00,17.4,13.0,"02:42:46",1
"23/12/16","03:00",0.0,17.7,96.4,1005.2,301.4,2.7,6.0,311.8,0.00,17.2,13.0,"02:58:26",1
"23/12/16","03:10",0.0,17.5,96.3,1005.0,301.0,2.7,6.8,326.6,0.00,16.9,12.9,"03:05:42",1
"23/12/16","03:20",0.0,17.5,96.2,1005.2,309.2,3.2,5.9,340.7,0.00,16.9,12.8,"03:10:50",1
"23/12/16","03:30",0.0,17.5,96.1,1005.0,321.4,3.5,6.2,338.5,0.00,16.9,13.0,"03:22:12",1
"23/12/16","03:40",0.0,17.4,96.1,1005.0,305.1,2.6,4.2,309.7,0.00,16.8,13.1,"03:38:02",1
"23/12/16","03:50",0.2,17.2,96.0,1005.0,314.7,3.1,4.9,327.2,0.00,16.6,13.1,"03:46:36",1
"23/12/16","04:00",0.0,17.1,95.6,1004.8,316.5,3.9,6.0,315.2,0.00,16.4,13.1,"03:53:56",1
"23/12/16","04:10",0.0,17.1,95.4,1005.2,295.5,2.8,5.8,313.9,0.00,16.4,13.3,"04:00:56",1
"23/12/16","04:20",0.2,17.0,95.2,1005.5,288.2,2.7,5.1,250.8,0.00,16.3,13.2,"04:17:36",1
"23/12/16","04:30",0.0,16.9,95.1,1005.2,284.6,2.7,4.8,254.9,0.00,16.2,13.2,"04:23:36",1
"23/12/16","04:40",0.0,16.8,95.0,1005.0,290.4,2.3,3.9,266.0,0.00,16.0,13.1,"04:34:58",1
"23/12/16","04:50",0.2,16.6,95.0,1005.2,304.9,2.0,2.9,322.8,0.00,15.8,12.9,"04:40:24",1
"23/12/16","05:00",0.2,16.5,95.0,1005.2,310.5,1.6,2.7,332.8,0.00,15.7,13.2,"04:55:04",1
"23/12/16","05:10",0.4,16.4,95.0,1005.2,286.1,1.8,3.6,347.2,0.00,15.6,13.1,"05:01:20",1
"23/12/16","05:20",0.6,16.3,94.9,1005.7,270.9,2.0,3.5,252.4,0.00,15.5,13.3,"05:14:16",1
"23/12/16","05:30",0.0,16.2,94.9,1005.5,259.1,2.0,3.6,255.2,0.00,15.4,13.1,"05:29:04",1
"23/12/16","05:40",0.0,16.1,94.6,1005.2,244.2,2.3,4.1,233.0,0.00,15.3,13.2,"05:31:04",1
"23/12/16","05:50",0.2,16.1,94.5,1005.7,235.7,2.6,4.4,245.7,0.00,15.3,13.2,"05:44:40",1
"23/12/16","06:00",0.0,16.0,94.4,1005.5,254.1,2.3,4.4,246.3,0.00,15.1,13.1,"05:53:12",1
"23/12/16","06:10",0.0,15.9,94.4,1005.5,263.9,1.5,2.5,258.7,0.00,15.0,13.2,"06:02:24",1
"23/12/16","06:20",0.0,15.9,94.3,1005.7,322.9,1.3,2.0,322.9,0.00,15.0,13.1,"06:19:04",1
"23/12/16","06:30",0.0,15.6,94.4,1005.7,321.4,1.3,2.2,336.3,0.00,14.7,13.3,"06:25:28",1
"23/12/16","06:40",0.0,15.5,94.5,1005.7,290.2,0.6,1.6,300.4,0.00,14.7,13.3,"06:30:02",1
"23/12/16","06:50",0.0,15.5,94.7,1006.0,340.3,1.1,2.5,329.8,0.00,14.7,13.2,"06:47:20",1
"23/12/16","07:00",0.0,15.3,94.8,1005.7,300.0,1.0,1.8,313.9,0.00,14.5,13.2,"06:59:36",1
"23/12/16","07:10",0.0,15.3,94.9,1005.7,306.4,1.3,1.8,318.8,0.00,14.5,13.3,"07:00:16",1
"23/12/16","07:20",0.0,15.3,95.0,1005.7,310.1,1.3,2.0,315.9,0.00,14.5,13.2,"07:18:00",1
"23/12/16","07:30",0.0,15.4,95.2,1005.5,328.8,1.1,1.7,356.1,0.00,14.7,13.2,"07:27:44",1
"23/12/16","07:40",0.0,15.4,95.4,1006.0,334.2,1.3,2.1,310.3,0.00,14.7,13.2,"07:34:00",1
"23/12/16","07:50",0.0,15.4,95.5,1005.7,319.2,1.2,1.7,323.7,0.01,14.7,13.4,"07:43:04",1
"23/12/16","08:00",0.0,15.6,95.7,1005.7,309.4,0.8,1.4,318.7,0.04,15.0,13.2,"07:52:32",1
"23/12/16","08:10",0.0,15.7,95.8,1006.2,312.2,0.5,1.2,261.7,0.06,15.1,13.3,"08:09:28",1
"23/12/16","08:20",0.0,15.8,95.8,1006.2,307.8,0.7,2.2,312.9,0.04,15.2,13.1,"08:12:48",1
"23/12/16","08:30",0.0,15.9,96.0,1006.4,39.4,0.8,2.2,114.0,0.05,15.3,13.3,"08:24:56",1
"23/12/16","08:40",0.0,16.0,96.0,1006.7,170.7,0.6,2.2,122.6,0.08,15.4,13.3,"08:37:20",1
"23/12/16","08:50",0.0,16.2,96.0,1006.4,227.7,0.5,1.4,131.4,0.09,15.6,13.2,"08:40:32",1
"23/12/16","09:00",0.0,16.2,96.0,1006.4,30.6,0.5,1.2,113.0,0.09,15.6,13.2,"08:54:48",1
"23/12/16","09:10",0.0,16.2,96.1,1006.0,75.8,0.5,1.1,110.8,0.08,15.6,13.3,"09:05:04",1
"23/12/16","09:20",0.0,16.1,96.0,1006.4,6.9,1.0,2.5,40.3,0.11,15.5,13.1,"09:11:44",1
"23/12/16","09:30",0.0,16.1,95.5,1006.2,214.5,1.0,2.9,227.8,0.12,15.4,13.4,"09:28:32",1
"23/12/16","09:40",0.0,16.3,95.2,1005.7,209.5,1.6,3.2,202.8,0.24,15.6,13.2,"09:31:36",1
"23/12/16","09:50",0.0,16.7,94.8,1006.4,215.3,1.6,2.7,201.0,0.21,15.9,13.3,"09:42:40",1
"23/12/16","10:00",0.0,16.4,93.0,1006.7,247.9,2.1,3.9,239.4,0.19,15.3,13.4,"09:55:36",1
"23/12/16","10:10",0.0,16.9,91.6,1006.2,270.7,1.6,4.0,242.9,0.19,15.6,13.5,"10:00:02",1
"23/12/16","10:20",0.0,17.2,88.9,1006.2,274.9,2.0,4.1,239.8,0.17,15.4,13.5,"10:18:48",1
"23/12/16","10:30",0.0,17.5,85.5,1006.4,290.5,2.6,4.9,354.7,0.23,15.1,13.6,"10:24:40",1
"23/12/16","10:40",0.0,17.8,82.6,1006.4,269.5,2.8,6.4,250.8,0.31,14.8,13.3,"10:33:36",1
"23/12/16","10:50",0.0,17.8,81.3,1006.2,263.5,2.6,5.2,237.1,0.21,14.6,13.7,"10:44:00",1
"23/12/16","11:00",0.0,17.6,80.2,1006.2,266.3,3.4,6.2,220.6,0.23,14.2,13.3,"10:52:08",1
"23/12/16","11:10",0.0,17.6,79.9,1006.0,273.2,3.1,6.0,284.0,0.21,14.1,13.7,"11:05:44",1
"23/12/16","11:20",0.0,17.5,79.4,1005.7,272.1,3.5,6.2,249.6,0.18,13.9,13.7,"11:18:00",1
"23/12/16","11:30",0.0,17.6,78.5,1005.5,283.1,3.2,6.0,260.2,0.23,13.9,13.7,"11:22:08",1
"23/12/16","11:40",0.0,17.8,77.3,1005.0,278.0,3.2,5.5,272.8,0.24,13.8,13.7,"11:36:24",1
"23/12/16","11:50",0.0,17.8,76.1,1005.2,278.5,2.8,6.5,341.0,0.17,13.6,13.8,"11:41:28",1
"23/12/16","12:00",0.0,17.8,75.4,1005.7,277.1,3.1,6.5,286.7,0.16,13.4,13.6,"11:52:32",1
"23/12/16","12:10",0.0,17.7,75.2,1004.8,280.3,2.7,4.8,240.4,0.14,13.3,13.8,"12:02:32",1
"23/12/16","12:20",0.0,17.6,75.1,1004.1,289.1,2.6,4.8,299.6,0.13,13.2,14.0,"12:19:20",1
"23/12/16","12:30",0.0,17.7,74.6,1004.5,295.1,2.7,5.7,312.4,0.14,13.2,13.8,"12:28:40",1
"23/12/16","12:40",0.0,17.5,74.6,1004.5,279.1,2.5,3.7,260.7,0.12,13.0,13.9,"12:31:36",1
"23/12/16","12:50",0.0,17.5,75.3,1004.8,269.8,2.2,4.5,258.4,0.09,13.1,13.7,"12:47:44",1
"23/12/16","13:00",0.0,17.5,76.1,1004.5,269.6,2.0,3.4,254.7,0.11,13.3,13.9,"12:53:52",1
"23/12/16","13:10",0.0,17.5,75.4,1004.5,262.7,2.0,4.9,252.8,0.13,13.1,13.8,"13:09:04",1
"23/12/16","13:20",0.0,17.5,74.4,1004.1,262.1,2.3,4.0,244.4,0.10,12.9,13.9,"13:10:56",1
"23/12/16","13:30",0.0,17.2,74.9,1003.4,260.7,1.8,3.3,295.3,0.06,12.8,14.0,"13:21:36",1
"23/12/16","13:40",0.0,16.8,75.3,1002.6,279.7,1.5,3.3,288.5,0.04,12.4,14.0,"13:37:44",1
"23/12/16","13:50",0.0,16.7,76.1,1003.1,265.8,1.3,2.8,235.2,0.03,12.5,13.8,"13:41:36",1
"23/12/16","14:00",0.0,16.4,78.6,1004.1,296.9,2.1,4.2,335.8,0.03,12.7,13.9,"13:54:08",1
"23/12/16","14:10",0.0,16.1,80.7,1004.3,289.8,2.1,3.7,295.4,0.03,12.8,14.1,"14:09:12",1
"23/12/16","14:20",0.0,15.9,82.0,1004.3,286.9,2.2,3.2,300.3,0.07,12.9,13.8,"14:13:20",1
"23/12/16","14:30",0.0,15.8,82.1,1004.5,294.0,2.6,4.7,336.5,0.06,12.8,14.1,"14:29:36",1
"23/12/16","14:40",0.0,15.9,81.3,1004.8,291.5,2.5,4.3,281.0,0.07,12.7,14.1,"14:36:40",1
"23/12/16","14:50",0.0,16.0,79.1,1005.2,286.2,2.7,5.0,265.4,0.05,12.4,14.0,"14:46:24",1
"23/12/16","15:00",0.0,16.1,77.5,1005.5,274.6,2.5,4.3,243.5,0.04,12.2,14.1,"14:55:20",1
"23/12/16","15:10",0.0,16.0,76.3,1005.5,267.3,2.5,5.4,257.8,0.02,11.9,13.9,"15:03:36",1
"23/12/16","15:20",0.0,16.0,75.5,1005.2,278.2,2.8,6.5,256.7,0.01,11.7,13.7,"15:12:40",1
"23/12/16","15:30",0.0,16.0,73.9,1005.7,277.7,3.2,6.5,273.4,0.00,11.4,13.8,"15:27:12",1
"23/12/16","15:40",0.0,15.9,73.0,1005.2,284.7,3.4,7.0,284.8,0.00,11.1,13.8,"15:35:42",1
"23/12/16","15:50",0.0,15.8,73.0,1005.7,285.5,3.2,6.2,266.1,0.00,11.0,13.8,"15:48:06",1
"23/12/16","16:00",0.0,15.8,72.8,1006.0,276.5,3.2,5.8,261.6,0.00,11.0,14.0,"15:55:16",1
"23/12/16","16:10",0.0,15.6,73.0,1006.0,263.4,2.8,5.2,240.2,0.00,10.8,14.1,"16:06:26",1
"23/12/16","16:20",0.0,15.5,73.4,1006.0,260.2,3.2,6.6,245.9,0.00,10.8,13.7,"16:11:38",1
"23/12/16","16:30",0.0,15.4,73.8,1006.0,258.2,3.4,7.4,239.9,0.00,10.8,13.9,"16:20:08",1
"23/12/16","16:40",0.0,15.3,74.4,1006.4,260.4,2.6,4.3,251.8,0.00,10.8,13.9,"16:37:00",1
"23/12/16","16:50",0.0,15.1,75.0,1006.2,255.1,2.7,5.5,235.6,0.00,10.7,13.5,"16:40:50",1
"23/12/16","17:00",0.0,15.0,75.5,1006.0,253.9,2.7,5.4,247.7,0.00,10.7,13.9,"16:58:20",1
"23/12/16","17:10",0.0,14.9,75.7,1006.2,253.1,3.0,5.0,242.0,0.00,10.7,13.7,"17:04:26",1
"23/12/16","17:20",0.0,14.8,76.2,1006.4,242.9,3.2,5.6,243.4,0.00,10.7,13.8,"17:10:08",1
"23/12/16","17:30",0.0,14.7,76.6,1005.5,254.9,2.6,4.3,244.2,0.00,10.7,13.7,"17:26:04",1
"23/12/16","17:40",0.0,14.5,77.1,1005.5,254.0,3.1,5.5,242.1,0.00,10.6,13.6,"17:39:20",1
"23/12/16","17:50",0.0,14.4,77.1,1006.2,261.0,2.8,6.7,248.6,0.00,10.5,13.8,"17:49:14",1
"23/12/16","18:00",0.0,14.4,76.6,1006.4,263.3,2.3,4.4,244.2,0.00,10.4,13.9,"17:59:04",1
"23/12/16","18:10",0.0,14.6,75.1,1006.7,263.3,2.8,6.3,287.9,0.00,10.3,13.8,"18:03:40",1
"23/12/16","18:20",0.0,14.5,74.1,1006.4,262.7,2.5,3.6,260.7,0.00,10.0,13.5,"18:14:18",1
"23/12/16","18:30",0.0,14.4,73.9,1006.4,284.3,2.0,3.9,296.3,0.00,9.8,13.6,"18:27:20",1
"23/12/16","18:40",0.0,14.3,73.9,1007.1,265.2,2.5,5.1,252.7,0.00,9.8,13.7,"18:38:36",1
"23/12/16","18:50",0.0,14.3,74.3,1006.7,259.7,2.3,4.4,245.0,0.00,9.8,13.7,"18:49:34",1
"23/12/16","19:00",0.0,14.0,75.2,1006.2,251.5,3.4,5.8,248.3,0.00,9.7,13.5,"18:59:38",1
"23/12/16","19:10",0.0,13.9,75.4,1006.2,255.8,3.7,6.8,241.1,0.00,9.7,13.6,"19:05:24",1
"23/12/16","19:20",0.0,13.7,75.4,1006.7,267.1,2.6,4.3,247.4,0.00,9.5,13.4,"19:10:56",1
"23/12/16","19:30",0.0,13.7,74.9,1006.7,260.2,3.4,9.5,239.7,0.00,9.4,13.5,"19:27:34",1
"23/12/16","19:40",0.0,13.6,74.2,1007.1,273.3,2.6,5.6,244.9,0.00,9.1,13.4,"19:33:42",1
"23/12/16","19:50",0.0,13.5,73.6,1007.6,277.2,2.8,5.0,322.1,0.00,8.9,13.5,"19:45:36",1
"23/12/16","20:00",0.0,13.4,71.9,1007.4,272.6,2.7,4.5,283.9,0.00,8.5,13.4,"19:56:50",1
"23/12/16","20:10",0.0,13.4,69.1,1007.1,260.5,3.2,5.2,249.0,0.00,7.9,13.4,"20:01:46",1
"23/12/16","20:20",0.0,13.3,68.0,1007.4,284.2,2.8,5.5,248.8,0.00,7.6,13.3,"20:10:08",1
"23/12/16","20:30",0.0,13.0,67.7,1007.8,288.6,2.3,3.6,304.7,0.00,7.2,13.4,"20:25:00",1
"23/12/16","20:40",0.0,12.9,65.9,1008.6,270.3,3.1,5.9,227.5,0.00,6.7,13.4,"20:35:54",1
"23/12/16","20:50",0.0,12.7,63.3,1008.6,282.5,2.7,4.4,312.3,0.00,6.0,13.2,"20:44:34",1
"23/12/16","21:00",0.0,12.6,61.1,1008.6,269.1,3.2,7.3,237.4,0.00,5.3,13.2,"20:50:40",1
"23/12/16","21:10",0.0,12.5,56.8,1008.6,264.4,4.0,6.4,244.2,0.00,4.2,13.2,"21:02:44",1
"23/12/16","21:20",0.0,12.4,53.7,1008.8,281.2,3.9,8.6,330.6,0.00,3.3,13.1,"21:15:54",1
"23/12/16","21:30",0.0,12.3,52.3,1008.6,275.2,4.0,7.0,308.0,0.00,2.9,13.2,"21:23:52",1
"23/12/16","21:40",0.0,12.1,51.6,1008.8,283.4,4.2,8.1,344.4,0.00,2.5,13.2,"21:36:36",1
"23/12/16","21:50",0.0,11.8,50.7,1008.3,278.9,4.6,8.6,268.4,0.00,2.0,12.9,"21:42:42",1
"23/12/16","22:00",0.0,11.7,51.2,1008.1,285.5,4.1,6.0,322.5,0.00,2.0,13.0,"21:55:54",1
"23/12/16","22:10",0.0,11.5,52.1,1008.6,284.8,3.6,5.6,282.0,0.00,2.1,13.2,"22:03:04",1
"23/12/16","22:20",0.0,11.4,51.9,1009.0,271.7,3.5,5.7,250.4,0.00,1.9,12.8,"22:15:30",1
"23/12/16","22:30",0.0,11.3,51.6,1009.0,269.7,3.6,6.3,245.6,0.00,1.7,13.0,"22:21:02",1
"23/12/16","22:40",0.0,11.1,53.6,1008.8,280.7,2.6,4.8,319.1,0.00,2.1,12.8,"22:30:36",1
"23/12/16","22:50",0.0,10.9,54.5,1009.3,281.5,3.1,4.8,329.4,0.00,2.1,12.7,"22:45:20",1
"23/12/16","23:00",0.0,10.8,55.0,1009.3,288.0,3.1,5.0,262.0,0.00,2.2,12.8,"22:54:40",1
"23/12/16","23:10",0.0,10.6,56.4,1009.3,292.0,3.0,5.1,350.2,0.00,2.3,12.7,"23:07:04",1
"23/12/16","23:20",0.0,10.4,57.2,1009.5,268.9,3.2,6.0,257.0,0.00,2.3,12.7,"23:18:24",1
"23/12/16","23:30",0.0,10.4,56.9,1009.7,275.8,3.9,6.4,244.4,0.00,2.3,12.6,"23:20:40",1
"23/12/16","23:40",0.0,10.3,58.0,1009.7,273.9,3.6,7.4,243.5,0.00,2.4,12.8,"23:35:44",1
"23/12/16","23:50",0.0,10.1,59.2,1009.5,280.8,2.6,4.2,321.6,0.00,2.5,12.6,"23:46:32",1
"23/12/16","24:00",0.0,10.1,59.3,1009.3,280.5,2.7,4.0,306.5,0.00,2.6,12.7,"23:54:32",1
